| time (UTC) | temp C | wind direction | speed KPH | gust KPH | rain 1hr cm | rain 24hr cm | rain mn cm | humidity % | barometer mb |
| 20260504215009 | 25 | 199 | 9.7 | 35.4 | 0.00 | 0.00 | 0.00 | 43 | 1011.7 |
| 20260504214515 | 25 | 165 | 12.9 | 35.4 | 0.00 | 0.00 | 0.00 | 45 | 1011.7 |
| 20260504214008 | 25 | 214 | 6.4 | 27.4 | 0.00 | 0.00 | 0.00 | 45 | 1011.5 |
| 20260504213506 | 25 | 206 | 11.3 | 24.1 | 0.00 | 0.00 | 0.00 | 45 | 1011.5 |
| 20260504213043 | 25 | 173 | 8.0 | 27.4 | 0.00 | 0.00 | 0.00 | 46 | 1011.6 |
| 20260504212507 | 25 | 221 | 8.0 | 30.6 | 0.00 | 0.00 | 0.00 | 47 | 1011.6 |
| 20260504212007 | 25 | 188 | 11.3 | 30.6 | 0.00 | 0.00 | 0.00 | 44 | 1011.6 |
| 20260504211525 | 25 | 197 | 14.5 | 24.1 | 0.00 | 0.00 | 0.00 | 46 | 1011.6 |
| 20260504211012 | 25 | 213 | 11.3 | 20.9 | 0.00 | 0.00 | 0.00 | 43 | 1011.6 |
| 20260504210508 | 25 | 169 | 6.4 | 22.5 | 0.00 | 0.00 | 0.00 | 48 | 1011.6 |
| 20260504210027 | 25 | 159 | 9.7 | 25.7 | 0.00 | 0.00 | 0.00 | 45 | 1011.7 |
| 20260504205507 | 25 | 202 | 12.9 | 25.7 | 0.00 | 0.00 | 0.00 | 44 | 1011.7 |
| 20260504205006 | 25 | 207 | 9.7 | 27.4 | 0.00 | 0.00 | 0.00 | 47 | 1011.8 |
| 20260504204527 | 25 | 209 | 9.7 | 33.8 | 0.00 | 0.00 | 0.00 | 47 | 1012.0 |
| 20260504204010 | 26 | 202 | 16.1 | 33.8 | 0.00 | 0.00 | 0.00 | 44 | 1012.1 |
| 20260504203511 | 25 | 223 | 11.3 | 27.4 | 0.00 | 0.00 | 0.00 | 44 | 1012.1 |
| 20260504203018 | 25 | 269 | 14.5 | 27.4 | 0.00 | 0.00 | 0.00 | 44 | 1012.3 |
| 20260504202507 | 24 | 134 | 4.8 | 38.6 | 0.00 | 0.00 | 0.00 | 50 | 1012.2 |
| 20260504202007 | 25 | 225 | 11.3 | 38.6 | 0.00 | 0.00 | 0.00 | 45 | 1012.4 |
| 20260504201505 | 25 | 223 | 19.3 | 37.0 | 0.00 | 0.00 | 0.00 | 44 | 1012.5 |
| 20260504201002 | 25 | 204 | 14.5 | 30.6 | 0.00 | 0.00 | 0.00 | 42 | 1012.4 |
| 20260504200504 | 25 | 198 | 11.3 | 24.1 | 0.00 | 0.00 | 0.00 | 45 | 1012.5 |
| 20260504200004 | 25 | 195 | 6.4 | 24.1 | 0.00 | 0.00 | 0.00 | 50 | 1012.7 |
| 20260504195502 | 25 | 204 | 12.9 | 24.1 | 0.00 | 0.00 | 0.00 | 47 | 1012.8 |
| 20260504195002 | 25 | 184 | 8.0 | 19.3 | 0.00 | 0.00 | 0.00 | 48 | 1012.8 |
| 20260504194514 | 25 | 228 | 9.7 | 22.5 | 0.00 | 0.00 | 0.00 | 48 | 1012.8 |
| 20260504194002 | 25 | 154 | 12.9 | 33.8 | 0.00 | 0.00 | 0.00 | 49 | 1012.9 |
| 20260504193505 | 24 | 230 | 11.3 | 33.8 | 0.00 | 0.00 | 0.00 | 48 | 1012.9 |
| 20260504193016 | 25 | 194 | 6.4 | 24.1 | 0.00 | 0.00 | 0.00 | 48 | 1013.0 |
| 20260504192506 | 25 | 191 | 9.7 | 24.1 | 0.00 | 0.00 | 0.00 | 48 | 1013.2 |
| 20260504192006 | 25 | 138 | 9.7 | 22.5 | 0.00 | 0.00 | 0.00 | 48 | 1013.2 |
| 20260504191520 | 25 | 121 | 8.0 | 22.5 | 0.00 | 0.00 | 0.00 | 49 | 1013.2 |
| 20260504191008 | 25 | 193 | 8.0 | 20.9 | 0.00 | 0.00 | 0.00 | 49 | 1013.3 |
| 20260504190507 | 25 | 180 | 8.0 | 24.1 | 0.00 | 0.00 | 0.00 | 49 | 1013.3 |
| 20260504190021 | 25 | 206 | 12.9 | 24.1 | 0.00 | 0.00 | 0.00 | 50 | 1013.3 |
| 20260504185506 | 25 | 183 | 9.7 | 24.1 | 0.00 | 0.00 | 0.00 | 49 | 1013.4 |
| 20260504185002 | 25 | 148 | 9.7 | 22.5 | 0.00 | 0.00 | 0.00 | 50 | 1013.5 |
| 20260504184514 | 25 | 207 | 11.3 | 22.5 | 0.00 | 0.00 | 0.00 | 51 | 1013.5 |
| 20260504184003 | 25 | 208 | 6.4 | 24.1 | 0.00 | 0.00 | 0.00 | 48 | 1013.5 |
| 20260504183503 | 25 | 271 | 6.4 | 30.6 | 0.00 | 0.00 | 0.00 | 49 | 1013.6 |
| 20260504183019 | 24 | 208 | 8.0 | 30.6 | 0.00 | 0.00 | 0.00 | 51 | 1013.6 |
| 20260504182509 | 24 | 202 | 11.3 | 25.7 | 0.00 | 0.00 | 0.00 | 51 | 1013.6 |
| 20260504182007 | 23 | 209 | 12.9 | 25.7 | 0.00 | 0.00 | 0.00 | 50 | 1013.6 |
| 20260504181519 | 24 | 175 | 12.9 | 20.9 | 0.00 | 0.00 | 0.00 | 51 | 1013.6 |
| 20260504181007 | 24 | 217 | 9.7 | 24.1 | 0.00 | 0.00 | 0.00 | 50 | 1013.6 |
| 20260504180507 | 25 | 210 | 11.3 | 25.7 | 0.00 | 0.00 | 0.00 | 49 | 1013.8 |
| 20260504180022 | 24 | 216 | 12.9 | 25.7 | 0.00 | 0.00 | 0.00 | 50 | 1013.7 |
| 20260504175506 | 25 | 175 | 11.3 | 20.9 | 0.00 | 0.00 | 0.00 | 52 | 1013.7 |
| 20260504175009 | 24 | 180 | 9.7 | 20.9 | 0.00 | 0.00 | 0.00 | 51 | 1013.9 |
| 20260504174526 | 24 | 215 | 6.4 | 17.7 | 0.00 | 0.00 | 0.00 | 50 | 1014.0 |
| 20260504174002 | 23 | 137 | 9.7 | 25.7 | 0.00 | 0.00 | 0.00 | 54 | 1014.0 |
| 20260504173506 | 23 | 219 | 16.1 | 25.7 | 0.00 | 0.00 | 0.00 | 51 | 1014.0 |
| 20260504173022 | 24 | 178 | 12.9 | 22.5 | 0.00 | 0.00 | 0.00 | 50 | 1014.2 |
| 20260504172503 | 23 | 219 | 9.7 | 20.9 | 0.00 | 0.00 | 0.00 | 52 | 1014.1 |
| 20260504172006 | 23 | 225 | 11.3 | 24.1 | 0.00 | 0.00 | 0.00 | 53 | 1014.2 |
| 20260504171521 | 23 | 135 | 12.9 | 24.1 | 0.00 | 0.00 | 0.00 | 53 | 1014.3 |
| 20260504171005 | 23 | 195 | 8.0 | 24.1 | 0.00 | 0.00 | 0.00 | 51 | 1014.4 |
| 20260504170510 | 23 | 161 | 11.3 | 33.8 | 0.00 | 0.00 | 0.00 | 54 | 1014.4 |
| 20260504151013 | 20 | 220 | 11.3 | 25.7 | 0.00 | 0.00 | 0.00 | 56 | 1015.6 |
| 20260504150507 | 20 | 183 | 14.5 | 25.7 | 0.00 | 0.00 | 0.00 | 56 | 1015.6 |
| 20260504141011 | 17 | 190 | 11.3 | 27.4 | 0.00 | 0.00 | 0.00 | 56 | 1016.2 |
| 20260504140509 | 17 | 129 | 12.9 | 27.4 | 0.00 | 0.00 | 0.00 | 56 | 1016.3 |
| 20260504130510 | 15 | 162 | 9.7 | 29.0 | 0.00 | 0.00 | 0.00 | 58 | 1016.2 |
| 20260504110503 | 13 | 219 | 11.3 | 27.4 | 0.00 | 0.00 | 0.00 | 57 | 1015.5 |
| 20260504100505 | 13 | 174 | 4.8 | 9.7 | 0.00 | 0.00 | 0.00 | 59 | 1015.5 |
| 20260504082002 | 12 | 171 | 6.4 | 11.3 | 0.00 | 0.00 | 0.00 | 61 | 1015.9 |
| 20260504081515 | 12 | 160 | 6.4 | 17.7 | 0.00 | 0.00 | 0.00 | 61 | 1016.0 |
| 20260504081004 | 12 | 204 | 9.7 | 17.7 | 0.00 | 0.00 | 0.00 | 61 | 1016.0 |
| 20260504080503 | 11 | 116 | 6.4 | 17.7 | 0.00 | 0.00 | 0.00 | 62 | 1016.0 |
| 20260504050503 | 12 | 196 | 4.8 | 16.1 | 0.00 | 0.03 | 0.00 | 63 | 1017.0 |
| 20260504050012 | 12 | 202 | 6.4 | 12.9 | 0.00 | 0.03 | 0.00 | 63 | 1017.0 |
| 20260504045504 | 12 | 156 | 4.8 | 12.9 | 0.00 | 0.03 | 0.03 | 63 | 1016.9 |
| 20260504045007 | 12 | 203 | 4.8 | 14.5 | 0.00 | 0.03 | 0.03 | 63 | 1016.8 |
| 20260504044533 | 11 | 211 | 6.4 | 19.3 | 0.00 | 0.03 | 0.03 | 63 | 1016.9 |
| 20260504044006 | 11 | 206 | 4.8 | 19.3 | 0.00 | 0.03 | 0.03 | 64 | 1016.9 |
| 20260504043504 | 11 | 215 | 3.2 | 9.7 | 0.00 | 0.03 | 0.03 | 65 | 1016.9 |
| 20260504043022 | 11 | 170 | 4.8 | 14.5 | 0.00 | 0.03 | 0.03 | 65 | 1017.0 |
| 20260504042503 | 11 | 173 | 3.2 | 14.5 | 0.00 | 0.03 | 0.03 | 65 | 1017.0 |
| 20260504042006 | 11 | 156 | 4.8 | 14.5 | 0.00 | 0.03 | 0.03 | 65 | 1017.0 |
| 20260504041503 | 11 | 194 | 3.2 | 8.0 | 0.00 | 0.03 | 0.03 | 64 | 1017.1 |
| 20260504041002 | 11 | 194 | 3.2 | 8.0 | 0.00 | 0.03 | 0.03 | 64 | 1017.0 |
| 20260504040503 | 10 | 194 | 1.6 | 6.4 | 0.00 | 0.03 | 0.03 | 64 | 1017.0 |
| 20260504040007 | 10 | 194 | 1.6 | 8.0 | 0.00 | 0.03 | 0.03 | 66 | 1017.1 |
| 20260504035506 | 10 | 194 | 4.8 | 8.0 | 0.00 | 0.03 | 0.03 | 67 | 1016.9 |
| 20260504035004 | 10 | 144 | 3.2 | 6.4 | 0.00 | 0.03 | 0.03 | 69 | 1017.0 |
| 20260504034512 | 9 | 144 | 3.2 | 6.4 | 0.00 | 0.03 | 0.03 | 70 | 1016.8 |
| 20260504034004 | 9 | 144 | 3.2 | 8.0 | 0.00 | 0.03 | 0.03 | 70 | 1016.8 |
| 20260504033508 | 9 | 144 | 4.8 | 8.0 | 0.00 | 0.03 | 0.03 | 71 | 1016.9 |
| 20260504033018 | 8 | 144 | 3.2 | 8.0 | 0.00 | 0.03 | 0.03 | 71 | 1016.9 |
| 20260504032504 | 8 | 144 | 4.8 | 8.0 | 0.00 | 0.03 | 0.03 | 72 | 1016.9 |
| 20260504032005 | 8 | 144 | 4.8 | 6.4 | 0.00 | 0.03 | 0.03 | 73 | 1017.1 |
| 20260504031524 | 8 | 144 | 3.2 | 6.4 | 0.00 | 0.03 | 0.03 | 74 | 1017.2 |
| 20260504031008 | 8 | 144 | 3.2 | 6.4 | 0.00 | 0.03 | 0.03 | 74 | 1017.3 |
| 20260504030503 | 8 | 145 | 1.6 | 3.2 | 0.00 | 0.03 | 0.03 | 74 | 1017.3 |
| 20260504030004 | 8 | 145 | 0.0 | 0.0 | 0.00 | 0.03 | 0.03 | 73 | 1017.3 |
| 20260504025503 | 8 | 145 | 0.0 | 0.0 | 0.00 | 0.03 | 0.03 | 71 | 1017.3 |
| 20260504025003 | 8 | 145 | 0.0 | 0.0 | 0.00 | 0.03 | 0.03 | 71 | 1017.3 |
| 20260504024515 | 9 | 145 | 0.0 | 3.2 | 0.00 | 0.03 | 0.03 | 70 | 1017.2 |
| 20260504024007 | 9 | 145 | 0.0 | 3.2 | 0.00 | 0.03 | 0.03 | 71 | 1017.2 |
| 20260504023503 | 9 | 144 | 1.6 | 4.8 | 0.00 | 0.03 | 0.03 | 71 | 1017.1 |
| 20260504023012 | 8 | 145 | 1.6 | 4.8 | 0.00 | 0.03 | 0.03 | 71 | 1017.0 |
| 20260504022504 | 8 | 144 | 3.2 | 4.8 | 0.00 | 0.03 | 0.03 | 71 | 1016.9 |
| 20260504022004 | 9 | 144 | 1.6 | 3.2 | 0.00 | 0.03 | 0.03 | 71 | 1016.9 |
| 20260504021525 | 9 | 145 | 1.6 | 3.2 | 0.00 | 0.03 | 0.03 | 69 | 1016.9 |
| 20260504021005 | 9 | 145 | 0.0 | 1.6 | 0.00 | 0.03 | 0.03 | 67 | 1016.9 |
| 20260504020508 | 10 | 145 | 0.0 | 1.6 | 0.00 | 0.03 | 0.03 | 66 | 1016.8 |
| 20260504020021 | 10 | 145 | 0.0 | 1.6 | 0.00 | 0.03 | 0.03 | 66 | 1016.6 |
| 20260504015508 | 10 | 145 | 0.0 | 1.6 | 0.00 | 0.03 | 0.03 | 66 | 1016.6 |
| 20260504015008 | 10 | 145 | 0.0 | 1.6 | 0.00 | 0.03 | 0.03 | 65 | 1016.6 |
| 20260504014507 | 10 | 144 | 0.0 | 1.6 | 0.00 | 0.03 | 0.03 | 64 | 1016.4 |
| 20260504014003 | 10 | 145 | 0.0 | 3.2 | 0.00 | 0.03 | 0.03 | 63 | 1016.3 |
| 20260504013503 | 11 | 144 | 0.0 | 4.8 | 0.00 | 0.03 | 0.03 | 62 | 1016.2 |
| 20260504013011 | 11 | 144 | 1.6 | 4.8 | 0.00 | 0.03 | 0.03 | 62 | 1016.2 |
| 20260504012504 | 11 | 145 | 1.6 | 4.8 | 0.00 | 0.03 | 0.03 | 60 | 1016.2 |
| 20260504012007 | 11 | 144 | 1.6 | 4.8 | 0.00 | 0.03 | 0.03 | 60 | 1016.2 |
| 20260504011514 | 12 | 144 | 1.6 | 3.2 | 0.00 | 0.03 | 0.03 | 57 | 1016.2 |
| 20260504011007 | 12 | 144 | 1.6 | 3.2 | 0.00 | 0.03 | 0.03 | 55 | 1016.3 |
| 20260504010505 | 12 | 144 | 1.6 | 4.8 | 0.00 | 0.03 | 0.03 | 55 | 1016.3 |
| 20260504010020 | 12 | 145 | 1.6 | 4.8 | 0.00 | 0.03 | 0.03 | 54 | 1016.2 |
| 20260504005505 | 13 | 145 | 3.2 | 4.8 | 0.00 | 0.03 | 0.03 | 52 | 1016.3 |
| 20260504005005 | 13 | 145 | 1.6 | 3.2 | 0.00 | 0.03 | 0.03 | 52 | 1016.3 |
| 20260504004526 | 13 | 145 | 0.0 | 4.8 | 0.00 | 0.03 | 0.03 | 52 | 1016.3 |
| 20260504004010 | 13 | 144 | 1.6 | 4.8 | 0.00 | 0.03 | 0.03 | 52 | 1016.2 |
| 20260504003507 | 13 | 145 | 1.6 | 3.2 | 0.00 | 0.03 | 0.03 | 51 | 1016.3 |
| 20260504003025 | 13 | 145 | 0.0 | 4.8 | 0.00 | 0.03 | 0.03 | 51 | 1016.4 |
| 20260504002503 | 13 | 145 | 1.6 | 4.8 | 0.00 | 0.03 | 0.03 | 51 | 1016.4 |
| 20260504002003 | 13 | 125 | 1.6 | 4.8 | 0.00 | 0.05 | 0.03 | 51 | 1016.4 |
| 20260504001518 | 14 | 83 | 1.6 | 3.2 | 0.00 | 0.05 | 0.03 | 50 | 1016.4 |
| 20260504001005 | 14 | 226 | 1.6 | 3.2 | 0.00 | 0.08 | 0.03 | 49 | 1016.4 |
| 20260504000506 | 15 | 226 | 1.6 | 4.8 | 0.00 | 0.10 | 0.03 | 47 | 1016.6 |
| 20260504000015 | 15 | 226 | 1.6 | 9.7 | 0.00 | 0.10 | 0.03 | 46 | 1016.7 |
| 20260503235506 | 16 | 226 | 3.2 | 9.7 | 0.00 | 0.10 | 0.03 | 44 | 1016.8 |
| 20260503235007 | 16 | 226 | 4.8 | 9.7 | 0.00 | 0.10 | 0.03 | 43 | 1017.0 |
| 20260503234520 | 16 | 238 | 3.2 | 8.0 | 0.00 | 0.10 | 0.03 | 41 | 1017.0 |
| 20260503234013 | 17 | 240 | 3.2 | 9.7 | 0.00 | 0.10 | 0.03 | 43 | 1017.1 |
| 20260503233507 | 17 | 240 | 3.2 | 9.7 | 0.00 | 0.10 | 0.03 | 41 | 1017.1 |
| 20260503233026 | 17 | 217 | 3.2 | 14.5 | 0.00 | 0.10 | 0.03 | 42 | 1017.1 |
| 20260503232508 | 17 | 231 | 3.2 | 14.5 | 0.00 | 0.10 | 0.03 | 42 | 1017.1 |
| 20260503232016 | 17 | 246 | 4.8 | 12.9 | 0.00 | 0.10 | 0.03 | 40 | 1017.1 |
| 20260503231526 | 17 | 236 | 3.2 | 11.3 | 0.00 | 0.10 | 0.03 | 43 | 1017.2 |
| 20260503231012 | 17 | 229 | 4.8 | 16.1 | 0.00 | 0.10 | 0.03 | 42 | 1017.2 |
| 20260503230503 | 17 | 224 | 6.4 | 16.1 | 0.00 | 0.10 | 0.03 | 42 | 1017.2 |
| 20260503230016 | 17 | 205 | 6.4 | 20.9 | 0.00 | 0.10 | 0.03 | 42 | 1017.1 |
| 20260503225503 | 17 | 250 | 4.8 | 20.9 | 0.00 | 0.10 | 0.03 | 42 | 1017.2 |
| 20260503225006 | 17 | 221 | 6.4 | 16.1 | 0.00 | 0.10 | 0.03 | 40 | 1017.2 |
| 20260503224518 | 17 | 211 | 3.2 | 19.3 | 0.00 | 0.10 | 0.03 | 43 | 1017.3 |
| 20260503224007 | 17 | 192 | 6.4 | 20.9 | 0.00 | 0.10 | 0.03 | 44 | 1017.4 |
| 20260503223508 | 17 | 189 | 11.3 | 20.9 | 0.00 | 0.10 | 0.03 | 41 | 1017.5 |
| 20260503223021 | 17 | 207 | 9.7 | 20.9 | 0.00 | 0.10 | 0.03 | 42 | 1017.5 |
| 20260503222508 | 17 | 218 | 11.3 | 20.9 | 0.00 | 0.10 | 0.03 | 41 | 1017.5 |
| 20260503222008 | 18 | 186 | 6.4 | 12.9 | 0.00 | 0.10 | 0.03 | 41 | 1017.6 |
| 20260503221533 | 18 | 217 | 3.2 | 11.3 | 0.00 | 0.10 | 0.03 | 44 | 1017.6 |
| 20260503221011 | 18 | 192 | 4.8 | 16.1 | 0.00 | 0.10 | 0.03 | 44 | 1017.6 |
| 20260503220509 | 18 | 252 | 6.4 | 16.1 | 0.00 | 0.10 | 0.03 | 41 | 1017.7 |
| 20260503220026 | 18 | 247 | 3.2 | 20.9 | 0.00 | 0.10 | 0.03 | 41 | 1017.7 |
| 20260503215510 | 17 | 181 | 4.8 | 20.9 | 0.00 | 0.10 | 0.03 | 44 | 1017.8 |